When you browse on this site, cookies collect data to enhance your experience and personalize the content and advertising you see.
Visit our Privacy Policy to learn more. By continuing to use the site, you agree to this use of cookies and data.
  • In Deutschland
  • Länderverzeichnis
  • Für 7 Tage
  • Wassertemperatur
  • Satellitenkarten
  • Wetterkarte
  • Widgets
  • user-avatar
    Anmelden

    Stündliche Wetter Alto Araguaia

    Heute, 18 Dezember, Dienstag

    Zeit Temperatur Niederschläge Wind Luftdruck Luftfeuchtigkeit
    00:00 +24°C° 0 mm 2 m/S 703 mmHg 73%
    01:00 +24°C° 0 mm 2 m/S 703 mmHg 75%
    02:00 +23°C° 0 mm 1 m/S 703 mmHg 74%
    03:00 +23°C° 0 mm 1 m/S 703 mmHg 75%
    04:00 +23°C° 0 mm 1 m/S 703 mmHg 76%
    05:00 +21°C° 0 mm 2 m/S 703 mmHg 78%
    06:00 +24°C° 0 mm 2 m/S 704 mmHg 71%
    07:00 +27°C° 0 mm 2 m/S 705 mmHg 64%
    08:00 +29°C° 0 mm 2 m/S 706 mmHg 55%
    09:00 +31°C° 0 mm 3 m/S 705 mmHg 49%
    10:00 +33°C° 0 mm 3 m/S 705 mmHg 42%
    11:00 +34°C° 0 mm 3 m/S 705 mmHg 36%
    12:00 +35°C° 0 mm 3 m/S 705 mmHg 35%
    13:00 +35°C° 0 mm 3 m/S 704 mmHg 33%
    14:00 +35°C° 0 mm 2 m/S 704 mmHg 32%
    15:00 +35°C° 0 mm 2 m/S 703 mmHg 36%
    16:00 +34°C° 0 mm 2 m/S 703 mmHg 41%
    17:00 +32°C° 0 mm 1 m/S 703 mmHg 45%
    18:00 +30°C° 0 mm 1 m/S 703 mmHg 48%
    19:00 +28°C° 0 mm 1 m/S 703 mmHg 51%
    20:00 +26°C° 0 mm 1 m/S 703 mmHg 53%
    21:00 +26°C° 0 mm 2 m/S 703 mmHg 57%
    22:00 +25°C° 0 mm 2 m/S 703 mmHg 61%
    23:00 +25°C° 0 mm 2 m/S 703 mmHg 64%

    Morgen, 19 Dezember, Mittwoch

    Zeit Temperatur Niederschläge Wind Luftdruck Luftfeuchtigkeit
    00:00 +24°C° 0 mm 2 m/S 703 mmHg 66%
    01:00 +24°C° 0 mm 2 m/S 703 mmHg 68%
    02:00 +24°C° 0 mm 2 m/S 703 mmHg 70%
    03:00 +23°C° 0 mm 1 m/S 703 mmHg 70%
    04:00 +23°C° 0 mm 1 m/S 703 mmHg 70%
    05:00 +23°C° 0 mm 1 m/S 703 mmHg 70%
    06:00 +25°C° 0 mm 2 m/S 703 mmHg 64%
    07:00 +28°C° 0 mm 2 m/S 704 mmHg 58%
    08:00 +30°C° 0 mm 2 m/S 705 mmHg 52%
    09:00 +32°C° 0 mm 2 m/S 705 mmHg 47%
    10:00 +34°C° 0 mm 2 m/S 705 mmHg 41%
    11:00 +36°C° 0 mm 2 m/S 705 mmHg 36%
    12:00 +34°C° 0 mm 1 m/S 704 mmHg 37%
    13:00 +34°C° 0 mm 1 m/S 703 mmHg 37%
    14:00 +34°C° 0 mm 1 m/S 703 mmHg 38%
    15:00 +33°C° 0 mm 1 m/S 702 mmHg 42%
    16:00 +32°C° 0 mm 1 m/S 702 mmHg 46%
    17:00 +31°C° 0 mm 1 m/S 701 mmHg 50%
    18:00 +30°C° 0 mm 1 m/S 701 mmHg 52%
    19:00 +29°C° 0 mm 1 m/S 702 mmHg 54%
    20:00 +26°C° 0 mm 0 m/S 702 mmHg 56%
    21:00 +25°C° 0 mm 0 m/S 702 mmHg 57%
    22:00 +25°C° 0 mm 0 m/S 702 mmHg 59%
    23:00 +24°C° 0 mm 0 m/S 702 mmHg 60%

    übermorgen, 20 Dezember, Donnerstag

    Zeit Temperatur Niederschläge Wind Luftdruck Luftfeuchtigkeit
    00:00 +26°C° 0 mm 1 m/S 702 mmHg 62%
    01:00 +25°C° 0 mm 1 m/S 701 mmHg 63%
    02:00 +25°C° 0 mm 1 m/S 701 mmHg 65%
    03:00 +25°C° 0 mm 1 m/S 701 mmHg 66%
    04:00 +24°C° 0 mm 1 m/S 701 mmHg 68%
    05:00 +24°C° 0 mm 1 m/S 701 mmHg 69%
    06:00 +26°C° 0 mm 1 m/S 702 mmHg 64%
    07:00 +28°C° 0 mm 1 m/S 702 mmHg 59%
    08:00 +30°C° 0 mm 2 m/S 703 mmHg 54%
    09:00 +32°C° 0 mm 2 m/S 703 mmHg 49%
    10:00 +34°C° 0 mm 2 m/S 703 mmHg 43%
    11:00 +36°C° 0 mm 2 m/S 703 mmHg 37%
    12:00 +36°C° 0 mm 2 m/S 702 mmHg 37%
    13:00 +35°C° 0 mm 2 m/S 702 mmHg 38%
    14:00 +35°C° 0 mm 2 m/S 701 mmHg 38%
    15:00 +34°C° 0 mm 2 m/S 700 mmHg 42%
    16:00 +32°C° 0 mm 2 m/S 700 mmHg 45%
    17:00 +32°C° 0 mm 1 m/S 700 mmHg 49%
    18:00 +30°C° 0 mm 1 m/S 700 mmHg 51%
    19:00 +29°C° 0 mm 1 m/S 700 mmHg 53%
    20:00 +28°C° 0 mm 1 m/S 701 mmHg 54%
    21:00 +27°C° 0 mm 1 m/S 701 mmHg 57%
    22:00 +27°C° 0 mm 1 m/S 701 mmHg 59%
    23:00 +26°C° 0 mm 1 m/S 701 mmHg 62%

    21 Dezember, Freitag

    Zeit Temperatur Niederschläge Wind Luftdruck Luftfeuchtigkeit
    00:00 +26°C° 0 mm 1 m/S 701 mmHg 62%
    01:00 +25°C° 0 mm 1 m/S 700 mmHg 63%
    02:00 +25°C° 0 mm 1 m/S 700 mmHg 64%
    03:00 +25°C° 0 mm 1 m/S 700 mmHg 66%
    04:00 +24°C° 0 mm 2 m/S 700 mmHg 69%
    05:00 +23°C° 0 mm 2 m/S 700 mmHg 71%
    06:00 +26°C° 0 mm 2 m/S 701 mmHg 67%
    07:00 +28°C° 0 mm 3 m/S 702 mmHg 62%
    08:00 +30°C° 0 mm 3 m/S 703 mmHg 57%
    09:00 +31°C° 0 mm 3 m/S 703 mmHg 53%
    10:00 +33°C° 0 mm 3 m/S 703 mmHg 49%
    11:00 +35°C° 0 mm 3 m/S 702 mmHg 45%
    12:00 +34°C° 0 mm 3 m/S 702 mmHg 48%
    13:00 +33°C° 0 mm 3 m/S 701 mmHg 50%
    14:00 +32°C° 0 mm 2 m/S 701 mmHg 53%
    15:00 +31°C° 0.1 mm 2 m/S 700 mmHg 56%
    16:00 +31°C° 0.1 mm 1 m/S 700 mmHg 60%
    17:00 +30°C° 0.1 mm 1 m/S 700 mmHg 63%
    18:00 +29°C° 0.2 mm 1 m/S 700 mmHg 66%
    19:00 +27°C° 0.2 mm 1 m/S 700 mmHg 70%
    20:00 +26°C° 0.2 mm 1 m/S 701 mmHg 73%
    21:00 +25°C° 0.5 mm 1 m/S 701 mmHg 76%
    22:00 +25°C° 0.5 mm 1 m/S 701 mmHg 79%
    23:00 +24°C° 0.5 mm 1 m/S 701 mmHg 81%

    22 Dezember, Samstag

    Zeit Temperatur Niederschläge Wind Luftdruck Luftfeuchtigkeit
    00:00 +24°C° 0.3 mm 1 m/S 701 mmHg 83%
    01:00 +23°C° 0.3 mm 1 m/S 700 mmHg 85%
    02:00 +21°C° 0.3 mm 0 m/S 700 mmHg 86%
    03:00 +23°C° 0.5 mm 1 m/S 700 mmHg 87%
    04:00 +23°C° 0.5 mm 1 m/S 700 mmHg 88%
    05:00 +22°C° 0.5 mm 1 m/S 701 mmHg 89%
    06:00 +25°C° 0.1 mm 1 m/S 701 mmHg 80%
    07:00 +27°C° 0.1 mm 1 m/S 702 mmHg 71%
    08:00 +30°C° 0.1 mm 1 m/S 703 mmHg 63%
    09:00 +31°C° 0.9 mm 2 m/S 703 mmHg 57%
    10:00 +32°C° 0.9 mm 2 m/S 702 mmHg 52%
    11:00 +34°C° 0.9 mm 3 m/S 702 mmHg 46%
    12:00 +34°C° 0.2 mm 2 m/S 702 mmHg 49%
    13:00 +32°C° 0.2 mm 2 m/S 701 mmHg 51%
    14:00 +31°C° 0.2 mm 1 m/S 700 mmHg 54%
    15:00 +30°C° 0.4 mm 1 m/S 700 mmHg 58%
    16:00 +29°C° 0.4 mm 2 m/S 700 mmHg 63%
    17:00 +28°C° 0.4 mm 2 m/S 700 mmHg 68%
    18:00 +27°C° 0.2 mm 2 m/S 700 mmHg 71%
    19:00 +27°C° 0.2 mm 1 m/S 700 mmHg 73%
    20:00 +26°C° 0.2 mm 1 m/S 701 mmHg 76%
    21:00 +25°C° 0.1 mm 1 m/S 701 mmHg 77%
    22:00 +25°C° 0.1 mm 1 m/S 701 mmHg 77%
    23:00 +25°C° 0.1 mm 1 m/S 701 mmHg 78%

    23 Dezember, Sonntag

    Zeit Temperatur Niederschläge Wind Luftdruck Luftfeuchtigkeit
    00:00 +25°C° 0.1 mm 1 m/S 700 mmHg 79%
    01:00 +24°C° 0.1 mm 1 m/S 700 mmHg 80%
    02:00 +24°C° 0.1 mm 1 m/S 699 mmHg 81%
    03:00 +24°C° 0.2 mm 1 m/S 700 mmHg 82%
    04:00 +23°C° 0.2 mm 1 m/S 700 mmHg 84%
    05:00 +23°C° 0.2 mm 1 m/S 700 mmHg 85%
    06:00 +25°C° 0.6 mm 2 m/S 701 mmHg 82%
    07:00 +26°C° 0.6 mm 2 m/S 702 mmHg 78%
    08:00 +27°C° 0.6 mm 3 m/S 702 mmHg 75%
    09:00 +28°C° 1.8 mm 3 m/S 702 mmHg 72%
    10:00 +29°C° 1.8 mm 3 m/S 702 mmHg 69%
    11:00 +29°C° 1.8 mm 3 m/S 702 mmHg 67%
    12:00 +29°C° 1.2 mm 3 m/S 702 mmHg 66%
    13:00 +30°C° 1.2 mm 3 m/S 701 mmHg 65%
    14:00 +30°C° 1.2 mm 3 m/S 701 mmHg 64%
    15:00 +29°C° 0.5 mm 2 m/S 700 mmHg 70%
    16:00 +27°C° 0.5 mm 2 m/S 700 mmHg 75%
    17:00 +26°C° 0.5 mm 2 m/S 700 mmHg 81%
    18:00 +26°C° 0.2 mm 2 m/S 700 mmHg 82%
    19:00 +25°C° 0.2 mm 1 m/S 701 mmHg 84%
    20:00 +24°C° 0.2 mm 1 m/S 701 mmHg 86%
    21:00 +24°C° 0.1 mm 1 m/S 701 mmHg 87%
    22:00 +24°C° 0.1 mm 1 m/S 701 mmHg 88%
    23:00 +23°C° 0.1 mm 1 m/S 701 mmHg 88%
    Mehr zeigen